| time (UTC) | temp F | wind direction | speed MPH | gust MPH | rain 1hr in | rain 24hr in | rain mn in | humidity % | barometer mb |
| 20260510213023 | 51 | 39 | 18.0 | 26.0 | 0.00 | 0.00 | 0.00 | 81 | 1016.8 |
| 20260510211520 | 51 | 39 | 18.0 | 29.0 | 0.00 | 0.00 | 0.00 | 81 | 1016.9 |
| 20260510210018 | 51 | 30 | 18.0 | 26.0 | 0.00 | 0.00 | 0.00 | 82 | 1016.8 |
| 20260510204516 | 51 | 35 | 19.0 | 29.0 | 0.00 | 0.00 | 0.00 | 82 | 1016.8 |
| 20260510203015 | 51 | 46 | 20.0 | 29.0 | 0.00 | 0.00 | 0.00 | 82 | 1016.7 |
| 20260510201514 | 52 | 40 | 19.0 | 28.0 | 0.00 | 0.00 | 0.00 | 82 | 1016.6 |
| 20260510200012 | 52 | 41 | 19.0 | 28.0 | 0.00 | 0.00 | 0.00 | 81 | 1016.4 |
| 20260510194519 | 52 | 30 | 15.0 | 27.0 | 0.00 | 0.00 | 0.00 | 81 | 1016.2 |
| 20260510193011 | 52 | 52 | 19.0 | 27.0 | 0.00 | 0.00 | 0.00 | 80 | 1016.1 |
| 20260510191509 | 53 | 44 | 16.0 | 26.0 | 0.00 | 0.00 | 0.00 | 80 | 1016.1 |
| 20260510190009 | 53 | 33 | 17.0 | 26.0 | 0.00 | 0.00 | 0.00 | 79 | 1016.0 |
| 20260510184506 | 53 | 44 | 16.0 | 25.0 | 0.00 | 0.00 | 0.00 | 79 | 1016.0 |
| 20260510183005 | 53 | 30 | 19.0 | 27.0 | 0.00 | 0.00 | 0.00 | 78 | 1016.1 |
| 20260510181505 | 53 | 42 | 20.0 | 31.0 | 0.00 | 0.00 | 0.00 | 78 | 1016.1 |
| 20260510180108 | 54 | 34 | 18.0 | 28.0 | 0.00 | 0.00 | 0.00 | 78 | 1016.2 |
| 20260510174502 | 54 | 51 | 20.0 | 29.0 | 0.00 | 0.00 | 0.00 | 77 | 1016.0 |
| 20260510173059 | 54 | 33 | 17.0 | 28.0 | 0.00 | 0.00 | 0.00 | 77 | 1016.3 |
| 20260510171611 | 54 | 41 | 19.0 | 30.0 | 0.00 | 0.00 | 0.00 | 76 | 1016.0 |
| 20260510170058 | 54 | 34 | 18.0 | 31.0 | 0.00 | 0.00 | 0.00 | 76 | 1016.1 |
| 20260510164609 | 54 | 42 | 17.0 | 32.0 | 0.00 | 0.00 | 0.00 | 76 | 1016.1 |
| 20260510163138 | 55 | 47 | 19.0 | 30.0 | 0.00 | 0.00 | 0.00 | 77 | 1016.1 |
| 20260510161553 | 55 | 46 | 21.0 | 34.0 | 0.00 | 0.00 | 0.00 | 77 | 1016.2 |
| 20260510160155 | 55 | 27 | 20.0 | 29.0 | 0.00 | 0.00 | 0.00 | 77 | 1016.0 |
| 20260510154554 | 55 | 46 | 17.0 | 32.0 | 0.00 | 0.00 | 0.00 | 77 | 1016.1 |
| 20260510153101 | 55 | 49 | 19.0 | 28.0 | 0.00 | 0.00 | 0.00 | 76 | 1016.3 |
| 20260510151611 | 55 | 56 | 20.0 | 32.0 | 0.00 | 0.00 | 0.00 | 76 | 1016.1 |
| 20260510144648 | 56 | 44 | 19.0 | 29.0 | 0.00 | 0.00 | 0.00 | 76 | 1016.3 |
| 20260510143101 | 56 | 39 | 20.0 | 29.0 | 0.00 | 0.00 | 0.00 | 75 | 1016.4 |
| 20260510141553 | 55 | 39 | 19.0 | 31.0 | 0.00 | 0.00 | 0.00 | 75 | 1016.2 |
| 20260510140048 | 56 | 49 | 15.0 | 27.0 | 0.00 | 0.00 | 0.00 | 76 | 1016.4 |
| 20260510134552 | 56 | 44 | 20.0 | 34.0 | 0.00 | 0.00 | 0.00 | 76 | 1016.3 |
| 20260510133045 | 56 | 84 | 22.0 | 33.0 | 0.00 | 0.00 | 0.00 | 75 | 1016.3 |
| 20260510131549 | 56 | 98 | 20.0 | 31.0 | 0.00 | 0.00 | 0.00 | 76 | 1016.4 |
| 20260510130044 | 56 | 34 | 17.0 | 33.0 | 0.00 | 0.00 | 0.00 | 77 | 1016.4 |
| 20260510124545 | 56 | 40 | 18.0 | 28.0 | 0.00 | 0.00 | 0.00 | 76 | 1016.6 |
| 20260510123040 | 56 | 39 | 19.0 | 31.0 | 0.00 | 0.00 | 0.00 | 76 | 1016.7 |
| 20260510121539 | 56 | 82 | 17.0 | 28.0 | 0.00 | 0.00 | 0.00 | 76 | 1016.8 |
| 20260510120039 | 56 | 37 | 18.0 | 28.0 | 0.00 | 0.00 | 0.00 | 76 | 1016.7 |
| 20260510114544 | 56 | 60 | 20.0 | 31.0 | 0.00 | 0.00 | 0.00 | 76 | 1016.8 |
| 20260510113036 | 56 | 44 | 17.0 | 28.0 | 0.00 | 0.00 | 0.00 | 76 | 1016.8 |
| 20260510111535 | 57 | 39 | 18.0 | 30.0 | 0.00 | 0.00 | 0.00 | 75 | 1016.8 |
| 20260510110032 | 56 | 49 | 19.0 | 27.0 | 0.00 | 0.00 | 0.00 | 75 | 1016.8 |
| 20260510104531 | 56 | 56 | 17.0 | 27.0 | 0.00 | 0.00 | 0.00 | 75 | 1016.9 |
| 20260510103028 | 55 | 67 | 19.0 | 31.0 | 0.00 | 0.00 | 0.00 | 75 | 1017.0 |
| 20260510101525 | 55 | 53 | 17.0 | 28.0 | 0.00 | 0.00 | 0.00 | 75 | 1016.8 |
| 20260510100036 | 54 | 58 | 19.0 | 28.0 | 0.00 | 0.00 | 0.00 | 75 | 1016.8 |
| 20260510094529 | 54 | 70 | 17.0 | 31.0 | 0.00 | 0.00 | 0.00 | 75 | 1016.9 |
| 20260510093022 | 54 | 54 | 17.0 | 28.0 | 0.00 | 0.00 | 0.00 | 76 | 1016.8 |
| 20260510091523 | 54 | 79 | 18.0 | 25.0 | 0.00 | 0.00 | 0.00 | 76 | 1016.7 |
| 20260510090023 | 54 | 88 | 16.0 | 29.0 | 0.00 | 0.00 | 0.00 | 76 | 1016.8 |
| 20260510084518 | 54 | 70 | 20.0 | 31.0 | 0.00 | 0.00 | 0.00 | 77 | 1016.8 |
| 20260510083021 | 54 | 49 | 19.0 | 32.0 | 0.00 | 0.00 | 0.00 | 76 | 1016.8 |
| 20260510081515 | 54 | 61 | 18.0 | 27.0 | 0.00 | 0.00 | 0.00 | 77 | 1016.9 |
| 20260510080024 | 54 | 46 | 18.0 | 31.0 | 0.00 | 0.00 | 0.00 | 78 | 1017.0 |
| 20260510074510 | 54 | 100 | 17.0 | 26.0 | 0.00 | 0.00 | 0.00 | 79 | 1016.8 |
| 20260510073005 | 54 | 76 | 16.0 | 24.0 | 0.00 | 0.00 | 0.00 | 81 | 1016.7 |
| 20260510071503 | 54 | 51 | 15.0 | 26.0 | 0.00 | 0.00 | 0.00 | 82 | 1016.8 |
| 20260510064556 | 53 | 64 | 15.0 | 28.0 | 0.00 | 0.00 | 0.00 | 83 | 1016.5 |
| 20260510063054 | 53 | 51 | 17.0 | 28.0 | 0.00 | 0.00 | 0.00 | 83 | 1016.4 |
| 20260510061555 | 53 | 37 | 17.0 | 27.0 | 0.00 | 0.00 | 0.00 | 84 | 1016.3 |
| 20260510060053 | 53 | 63 | 18.0 | 27.0 | 0.00 | 0.00 | 0.00 | 85 | 1016.1 |
| 20260510054549 | 53 | 56 | 14.0 | 24.0 | 0.00 | 0.00 | 0.00 | 85 | 1016.0 |
| 20260510053045 | 53 | 40 | 16.0 | 24.0 | 0.00 | 0.00 | 0.00 | 85 | 1015.7 |
| 20260510051547 | 53 | 37 | 16.0 | 25.0 | 0.00 | 0.00 | 0.00 | 86 | 1015.7 |
| 20260510050141 | 53 | 47 | 16.0 | 27.0 | 0.00 | 0.00 | 0.00 | 86 | 1015.7 |
| 20260510044538 | 53 | 65 | 16.0 | 28.0 | 0.00 | 0.00 | 0.00 | 87 | 1015.7 |
| 20260510043041 | 53 | 49 | 17.0 | 28.0 | 0.00 | 0.00 | 0.00 | 87 | 1015.6 |
| 20260510041536 | 53 | 41 | 17.0 | 27.0 | 0.00 | 0.00 | 0.00 | 87 | 1015.8 |
| 20260510040035 | 53 | 61 | 16.0 | 26.0 | 0.00 | 0.00 | 0.00 | 87 | 1016.0 |
| 20260510034541 | 53 | 46 | 17.0 | 31.0 | 0.00 | 0.00 | 0.00 | 87 | 1016.0 |
| 20260510033033 | 53 | 58 | 20.0 | 29.0 | 0.00 | 0.00 | 0.00 | 87 | 1016.0 |
| 20260510031531 | 53 | 44 | 19.0 | 33.0 | 0.00 | 0.00 | 0.00 | 87 | 1016.1 |
| 20260510030030 | 53 | 49 | 18.0 | 31.0 | 0.00 | 0.00 | 0.00 | 87 | 1016.1 |
| 20260510024529 | 53 | 51 | 19.0 | 30.0 | 0.00 | 0.00 | 0.00 | 87 | 1016.3 |
| 20260510023027 | 53 | 51 | 16.0 | 30.0 | 0.00 | 0.00 | 0.00 | 87 | 1016.3 |
| 20260510021531 | 53 | 51 | 17.0 | 26.0 | 0.00 | 0.00 | 0.00 | 87 | 1016.4 |
| 20260510020028 | 53 | 40 | 18.0 | 31.0 | 0.00 | 0.00 | 0.00 | 87 | 1016.3 |
| 20260510014526 | 53 | 46 | 22.0 | 34.0 | 0.00 | 0.00 | 0.00 | 86 | 1016.3 |
| 20260510013025 | 53 | 27 | 21.0 | 31.0 | 0.00 | 0.00 | 0.00 | 86 | 1016.5 |
| 20260510011535 | 53 | 42 | 20.0 | 32.0 | 0.00 | 0.00 | 0.00 | 86 | 1016.7 |
| 20260510010020 | 53 | 37 | 20.0 | 29.0 | 0.00 | 0.00 | 0.00 | 86 | 1016.7 |
| 20260510004518 | 53 | 39 | 17.0 | 27.0 | 0.00 | 0.00 | 0.00 | 86 | 1016.8 |
| 20260510003023 | 53 | 44 | 19.0 | 30.0 | 0.00 | 0.00 | 0.00 | 86 | 1016.9 |
| 20260510001516 | 53 | 27 | 20.0 | 30.0 | 0.00 | 0.00 | 0.00 | 86 | 1017.0 |
| 20260510000017 | 53 | 46 | 19.0 | 30.0 | 0.00 | 0.00 | 0.00 | 86 | 1017.2 |
| 20260509234513 | 53 | 47 | 17.0 | 30.0 | 0.00 | 0.00 | 0.00 | 86 | 1017.2 |
| 20260509233013 | 53 | 39 | 16.0 | 27.0 | 0.00 | 0.00 | 0.00 | 86 | 1017.4 |
| 20260509231512 | 53 | 44 | 17.0 | 28.0 | 0.00 | 0.00 | 0.00 | 86 | 1017.4 |
| 20260509230007 | 53 | 46 | 17.0 | 27.0 | 0.00 | 0.00 | 0.00 | 86 | 1017.4 |
| 20260509224505 | 53 | 51 | 16.0 | 26.0 | 0.00 | 0.00 | 0.00 | 86 | 1017.4 |
| 20260509223107 | 53 | 53 | 16.0 | 27.0 | 0.00 | 0.00 | 0.00 | 86 | 1017.4 |
| 20260509221559 | 53 | 32 | 18.0 | 27.0 | 0.00 | 0.00 | 0.00 | 86 | 1017.4 |
| 20260509220100 | 53 | 68 | 16.0 | 28.0 | 0.00 | 0.00 | 0.00 | 86 | 1017.5 |
| 20260509214557 | 53 | 60 | 13.0 | 25.0 | 0.00 | 0.00 | 0.00 | 86 | 1017.5 |